[[{"header":{"parameterUnit":"m.s-1","parameterCategory":2,"la1":30.2991,"la2":30.254,"lo1":-89.0895,"lo2":-89.0444,"dy":0.0017,"dx":0.0017,"nx":28,"ny":28,"refTime":"2025-04-01T21:00:00:Z","depth":"0","parameterNumber":2,"parameterNumberName":"U-component_of_CURRENTS"},"data":[0,0,0,0,0,0,0,0,0,0,0,0,0,0,0,0,0,0,0,0,0,0,0,0,0,0,0,0,0,0,0,0,0,0,0,0,0,0,0,0,0,0,0,0,0,0,0,0,0,0,0,0,0,0,0,0,0,0,-0.2676,-0.2677,0,-0.2691,-0.2691,-0.2691,-0.2658,-0.2657,-0.2656,-0.2655,-0.2618,-0.2618,-0.2617,0,0,0,0,0,0,0,0,0,0,0,0,0,-0.2626,-0.2627,-0.2676,-0.2677,-0.2677,-0.2691,-0.2691,-0.2691,-0.2658,-0.2657,-0.2656,-0.2655,-0.2618,-0.2618,-0.2617,0,0,0,0,0,0,0,0,0,0,0,0,0,-0.2643,-0.2627,-0.2676,-0.2664,-0.2663,-0.2691,-0.2691,-0.2691,-0.2658,-0.2657,-0.2655,-0.2654,-0.2618,-0.2618,-0.2617,-0.2642,0,0,-0.2617,-0.2617,0,0,0,0,0,0,0,0,-0.2642,-0.2645,-0.2665,-0.2665,-0.2664,-0.2673,-0.266,-0.2673,-0.2658,-0.2658,-0.2655,-0.2654,-0.2634,-0.2632,-0.2636,-0.2641,-0.2639,-0.2617,-0.2616,-0.2616,-0.2616,0,0,0,0,0,0,0,-0.2641,-0.2644,-0.268,-0.2666,-0.2665,-0.266,-0.266,-0.2662,-0.2651,-0.2658,-0.2656,-0.2661,-0.2632,-0.2636,-0.2634,-0.2638,-0.2617,-0.2616,-0.2616,-0.2616,-0.2661,-0.2662,0,0,0,0,0,0,-0.2645,-0.2643,-0.268,-0.2681,-0.2652,-0.2662,-0.2662,-0.267,-0.2652,-0.2649,-0.2662,-0.266,-0.2637,-0.2635,-0.2633,-0.2658,-0.2616,-0.2616,-0.2616,-0.2659,-0.2661,-0.2662,0,0,0,0,0,0,-0.2643,-0.2648,-0.2679,-0.2663,-0.2667,-0.2664,-0.2673,-0.2671,-0.2669,-0.2656,-0.2651,-0.2662,-0.2636,-0.2633,-0.2635,-0.2656,-0.2616,-0.2616,-0.2658,-0.266,-0.2662,-0.2709,0,0,0,0,0,0,-0.2642,-0.2647,-0.265,-0.2664,-0.2668,-0.2697,-0.2674,-0.2672,-0.2676,-0.2672,-0.2655,-0.265,-0.2635,-0.2636,-0.2635,-0.2655,-0.2616,-0.2656,-0.2659,-0.2661,-0.2706,-0.2712,-0.2718,0,0,0,0,0,-0.264,-0.2651,-0.265,-0.2655,-0.2674,-0.2698,-0.27,-0.2692,-0.2677,-0.2684,-0.2671,-0.265,-0.2651,-0.2637,-0.2636,-0.2655,-0.2655,-0.2658,-0.2661,-0.2703,-0.2711,-0.2718,0,0,0,0,0,0,-0.2629,-0.2649,-0.2648,-0.2664,-0.2681,-0.2693,-0.2696,-0.2696,-0.2693,-0.2683,-0.2665,-0.2661,-0.2672,-0.2661,-0.2646,-0.2678,-0.2651,-0.2654,-0.2684,-0.2691,-0.2697,-0.2686,-0.2615,0,0,0,0,0,-0.2631,-0.2639,-0.2663,-0.2673,-0.2683,-0.2691,-0.2698,-0.2698,-0.2701,-0.2697,-0.2688,-0.2681,-0.2687,-0.2685,-0.2685,-0.2702,-0.2667,-0.2716,-0.2722,-0.2727,-0.2719,-0.2688,-0.269,-0.2672,-0.2672,-0.2672,0,0,-0.2627,-0.264,-0.2643,-0.2671,-0.2679,-0.2706,-0.2691,-0.2706,-0.2724,-0.2695,-0.2707,-0.2701,-0.2697,-0.2714,-0.2719,-0.2704,-0.2715,-0.2731,-0.2735,-0.2724,-0.2692,-0.2693,-0.2694,-0.2674,-0.2674,-0.2674,0,0,-0.263,-0.2638,-0.265,-0.2673,-0.2696,-0.2709,-0.2716,-0.2735,-0.2736,-0.2757,-0.2741,-0.2743,-0.2754,-0.2751,-0.2753,-0.2794,-0.2749,-0.2803,-0.2823,-0.2794,-0.2795,-0.2795,-0.2752,-0.2748,-0.2805,-0.2806,-0.2806,0,-0.2624,-0.2645,-0.2658,-0.2685,-0.2701,-0.2714,-0.2739,-0.2756,-0.2772,-0.2773,-0.2765,-0.2774,-0.2771,-0.2786,-0.2804,-0.2806,-0.2776,-0.2794,-0.28,-0.2799,-0.2798,-0.2755,-0.2749,-0.2808,-0.2808,-0.2808,-0.2807,0,-0.2643,-0.2663,-0.2674,-0.2711,-0.2735,-0.2756,-0.2789,-0.2806,-0.281,-0.2819,-0.283,-0.2826,-0.2823,-0.2838,-0.2835,-0.284,-0.2816,-0.281,-0.2775,-0.2802,-0.2755,-0.2749,-0.2812,-0.2811,-0.281,-0.281,0,0,-0.2612,-0.2674,-0.2676,-0.2697,-0.2748,-0.2768,-0.2808,-0.2839,-0.2852,-0.2865,-0.2873,-0.2891,-0.2874,-0.2874,-0.287,-0.2855,-0.2832,-0.2835,-0.2832,-0.2782,-0.2754,-0.2668,-0.2652,-0.2824,-0.2824,-0.2823,-0.2723,0,-0.2616,-0.2664,-0.2698,-0.2741,-0.2767,-0.2802,-0.2838,-0.2868,-0.2884,-0.2898,-0.2894,-0.2901,-0.2894,-0.2891,-0.2877,-0.2849,-0.2817,-0.2858,-0.2744,-0.274,-0.2651,-0.2643,-0.2573,-0.2471,-0.2716,-0.2715,-0.2714,0,-0.2614,-0.2649,-0.2691,-0.2752,-0.2766,-0.2797,-0.2839,-0.2874,-0.2906,-0.2916,-0.2917,-0.2914,-0.2907,-0.2893,-0.2831,-0.2857,-0.2803,-0.2773,-0.2769,-0.2663,-0.2641,-0.2485,-0.245,-0.2444,-0.2703,-0.2704,-0.2705,0,-0.2568,-0.2638,-0.2666,-0.2689,-0.2766,-0.2785,-0.2821,-0.2865,-0.2886,-0.2916,-0.2921,-0.2915,-0.2895,-0.285,-0.2787,-0.2808,-0.27,-0.2718,-0.2582,-0.2575,-0.2478,-0.2464,-0.2411,-0.2649,-0.2649,-0.2649,-0.2649,0,-0.2549,-0.2569,-0.2645,-0.2661,-0.2689,-0.2757,-0.2783,-0.282,-0.2866,-0.2874,-0.2912,-0.29,-0.2881,-0.2824,-0.2777,-0.2644,-0.2679,-0.2568,-0.2539,-0.2494,-0.2482,-0.2442,-0.2464,-0.2645,-0.2646,-0.2647,-0.2648,0,-0.2479,-0.2536,-0.2567,-0.2645,-0.2665,-0.2679,-0.275,-0.2768,-0.2826,-0.2835,-0.2842,-0.2868,-0.2793,-0.2746,-0.2659,-0.2602,-0.2459,-0.2447,-0.2387,-0.2351,-0.223,-0.2257,-0.2132,-0.2069,-0.229,-0.2287,-0.2285,0,-0.2443,-0.2453,-0.2525,-0.2536,-0.2565,-0.2606,-0.263,-0.272,-0.2743,-0.2799,-0.2789,-0.275,-0.2679,-0.2529,-0.2437,-0.2307,-0.2317,-0.2173,-0.22,-0.2193,-0.2203,-0.2222,-0.2181,-0.2095,-0.2091,-0.2088,-0.2086,0,-0.2358,-0.2383,-0.2406,-0.2433,-0.2459,-0.2492,-0.2538,-0.2554,-0.2646,-0.2653,-0.2634,-0.2587,-0.2472,-0.2319,-0.2174,-0.2098,-0.2134,-0.2104,-0.2115,-0.205,-0.2047,-0.1982,-0.2195,-0.2058,-0.2061,-0.2063,-0.2065,-0.2066,-0.2269,-0.2261,-0.2291,-0.2299,-0.2333,-0.2343,-0.2318,-0.238,-0.2381,-0.2363,-0.2426,-0.233,-0.2258,-0.2045,-0.1962,-0.1845,-0.1892,-0.1817,-0.185,-0.187,-0.1807,-0.1946,-0.1768,-0.1769,-0.177,-0.1771,-0.1772,0,-0.2144,-0.2147,-0.2155,-0.216,-0.2134,-0.2201,-0.222,-0.2167,-0.2111,-0.215,-0.2103,-0.2043,-0.1897,-0.1847,-0.1736,-0.1645,-0.1614,-0.1613,-0.1655,-0.1623,-0.1753,-0.1745,-0.153,-0.153,-0.153,-0.153,-0.153,-0.153,-0.2077,-0.2033,-0.2038,-0.1947,-0.1947,-0.1858,-0.1831,-0.1781,-0.1777,-0.1703,-0.1704,-0.1744,-0.1736,-0.1805,-0.1681,-0.1591,-0.1557,-0.1494,-0.1504,-0.1655,-0.1679,-0.1701,-0.1699,-0.1478,-0.1478,-0.1334,-0.1333,-0.1333]},{"header":{"parameterUnit":"m.s-1","parameterCategory":2,"la1":30.2991,"la2":30.254,"lo1":-89.0895,"lo2":-89.0444,"dy":0.0017,"dx":0.0017,"nx":28,"ny":28,"refTime":"2025-04-01T21:00:00:Z","depth":"0","parameterNumber":3,"parameterNumberName":"V-component_of_CURRENTS"},"data":[0,0,0,0,0,0,0,0,0,0,0,0,0,0,0,0,0,0,0,0,0,0,0,0,0,0,0,0,0,0,0,0,0,0,0,0,0,0,0,0,0,0,0,0,0,0,0,0,0,0,0,0,0,0,0,0,0,0,-0.0398,-0.0397,0,-0.0321,-0.032,-0.0319,-0.0265,-0.0265,-0.0264,-0.0264,-0.0157,-0.0154,-0.0152,0,0,0,0,0,0,0,0,0,0,0,0,0,-0.0457,-0.0456,-0.0398,-0.0397,-0.0397,-0.0321,-0.032,-0.0319,-0.0265,-0.0265,-0.0264,-0.0264,-0.0158,-0.0155,-0.0152,0,0,0,0,0,0,0,0,0,0,0,0,0,-0.041,-0.0456,-0.0398,-0.0361,-0.0357,-0.0321,-0.032,-0.0318,-0.0265,-0.0265,-0.0264,-0.0264,-0.0159,-0.0155,-0.0151,-0.0138,0,0,-0.014,-0.0138,0,0,0,0,0,0,0,0,-0.0413,-0.0408,-0.0368,-0.0364,-0.0359,-0.0303,-0.0301,-0.0257,-0.0265,-0.0299,-0.0264,-0.0263,-0.0204,-0.0196,-0.0182,-0.0133,-0.0129,-0.0139,-0.0137,-0.0135,-0.0134,0,0,0,0,0,0,0,-0.0416,-0.041,-0.0367,-0.0367,-0.0362,-0.0333,-0.0327,-0.0292,-0.0254,-0.0296,-0.0292,-0.0285,-0.0201,-0.0186,-0.0179,-0.0127,-0.0139,-0.0136,-0.0134,-0.0132,-0.005,-0.005,0,0,0,0,0,0,-0.043,-0.0414,-0.0369,-0.0365,-0.0386,-0.0333,-0.0325,-0.0321,-0.0255,-0.0245,-0.0286,-0.0283,-0.0193,-0.0184,-0.0175,-0.0149,-0.0135,-0.0132,-0.013,-0.005,-0.005,-0.005,0,0,0,0,0,0,-0.0431,-0.0427,-0.0372,-0.0388,-0.0379,-0.0333,-0.0328,-0.032,-0.0304,-0.0247,-0.0237,-0.0279,-0.0192,-0.0181,-0.0144,-0.0145,-0.013,-0.0127,-0.005,-0.005,-0.005,-0.0102,0,0,0,0,0,0,-0.0433,-0.0428,-0.0431,-0.0389,-0.0379,-0.0358,-0.0328,-0.0318,-0.0301,-0.0296,-0.0238,-0.0228,-0.0191,-0.015,-0.014,-0.0139,-0.0124,-0.005,-0.005,-0.005,-0.01,-0.0103,-0.0107,0,0,0,0,0,-0.0436,-0.0445,-0.0432,-0.0427,-0.0384,-0.0359,-0.0351,-0.0316,-0.0301,-0.0299,-0.0257,-0.023,-0.0144,-0.0147,-0.0136,-0.0134,-0.005,-0.005,-0.005,-0.0098,-0.0103,-0.0106,0,0,0,0,0,0,-0.0471,-0.0439,-0.0424,-0.0423,-0.0396,-0.035,-0.0346,-0.0322,-0.0287,-0.0283,-0.0228,-0.0215,-0.0186,-0.0153,-0.0158,-0.0111,-0.0093,-0.0091,-0.0134,-0.0138,-0.0141,-0.015,-0.0121,0,0,0,0,0,-0.0482,-0.0481,-0.0443,-0.0443,-0.0433,-0.0391,-0.0377,-0.0354,-0.0317,-0.0301,-0.0259,-0.0216,-0.0178,-0.0154,-0.012,-0.0091,-0.0047,-0.0083,-0.0087,-0.009,-0.009,-0.0025,-0.0022,-0.0051,-0.0051,-0.0051,0,0,-0.0495,-0.0478,-0.0477,-0.045,-0.0427,-0.042,-0.0381,-0.0366,-0.0355,-0.0295,-0.0269,-0.0229,-0.0176,-0.0145,-0.0129,-0.0116,-0.0058,-0.009,-0.0093,-0.0091,-0.0024,-0.0021,-0.0019,-0.0051,-0.0051,-0.0051,0,0,-0.0527,-0.0507,-0.052,-0.0502,-0.0475,-0.0445,-0.0445,-0.0403,-0.0379,-0.035,-0.0305,-0.0262,-0.021,-0.0164,-0.0136,-0.0137,-0.0084,-0.0132,-0.0148,-0.0085,-0.0082,-0.0079,-0.0019,-0.0009,-0.0127,-0.0127,-0.0127,0,-0.0546,-0.0553,-0.0519,-0.0525,-0.0514,-0.0462,-0.0469,-0.0438,-0.0389,-0.0364,-0.0352,-0.0257,-0.0216,-0.0161,-0.0164,-0.0143,-0.0102,-0.0138,-0.0089,-0.0085,-0.0081,-0.002,-0.0009,-0.013,-0.0129,-0.0129,-0.0129,0,-0.0586,-0.059,-0.0596,-0.0585,-0.0567,-0.0565,-0.0519,-0.0496,-0.046,-0.0419,-0.0363,-0.0299,-0.0239,-0.0221,-0.0193,-0.0143,-0.0122,-0.0107,-0.008,-0.0081,-0.0017,-0.0005,-0.0133,-0.0132,-0.0132,-0.0131,0,0,-0.0628,-0.0627,-0.0627,-0.0633,-0.0599,-0.0589,-0.0567,-0.0524,-0.05,-0.0444,-0.0404,-0.0334,-0.029,-0.0256,-0.0206,-0.015,-0.0087,-0.0123,-0.0118,-0.0066,0.0052,0.0089,0.0106,-0.0064,-0.0063,-0.0061,0.0085,0,-0.0669,-0.0706,-0.0681,-0.0698,-0.071,-0.0654,-0.0635,-0.0587,-0.053,-0.0478,-0.0393,-0.034,-0.0305,-0.0273,-0.0214,-0.0115,-0.0058,-0.0128,0.0048,0.0053,0.0084,0.012,0.016,0.0296,0.0097,0.0099,0.0101,0,-0.0714,-0.0732,-0.0768,-0.0757,-0.0754,-0.0751,-0.0699,-0.0673,-0.0581,-0.0535,-0.0457,-0.0386,-0.0289,-0.0269,-0.0094,-0.0141,-0.0057,0.0019,0.0027,0.0088,0.0112,0.0266,0.0326,0.0459,0.012,0.0119,0.0117,0,-0.077,-0.0785,-0.0818,-0.0817,-0.0798,-0.0793,-0.0771,-0.0694,-0.0661,-0.0565,-0.0522,-0.0399,-0.0325,-0.0205,-0.0048,-0.0069,0.0145,0.014,0.0256,0.0259,0.0343,0.0351,0.0552,0.0254,0.0254,0.0253,0.0253,0,-0.0824,-0.0845,-0.0851,-0.087,-0.0893,-0.0852,-0.0843,-0.0796,-0.0719,-0.0671,-0.0559,-0.0481,-0.0306,-0.0161,-0.0042,0.0159,0.0159,0.0267,0.0306,0.0325,0.033,0.0488,0.0527,0.0259,0.0257,0.0256,0.0255,0,-0.0881,-0.0886,-0.0924,-0.0925,-0.0926,-0.0942,-0.0907,-0.089,-0.0806,-0.0738,-0.0707,-0.0523,-0.0321,-0.014,0.0085,0.0183,0.0449,0.0419,0.0429,0.0466,0.0674,0.0707,0.0938,0.1015,0.057,0.0572,0.0574,0,-0.0914,-0.0945,-0.0978,-0.1005,-0.101,-0.1021,-0.1023,-0.0951,-0.0915,-0.0753,-0.0717,-0.0505,-0.0335,0.0016,0.0237,0.0476,0.056,0.0633,0.0595,0.0711,0.0778,0.0794,0.0842,0.0692,0.0694,0.0696,0.0698,0,-0.0973,-0.0986,-0.1019,-0.1084,-0.1107,-0.1119,-0.1105,-0.1089,-0.0981,-0.0882,-0.0704,-0.055,-0.0199,0.0118,0.0421,0.0558,0.0736,0.0679,0.0814,0.0905,0.0926,0.101,0.0562,0.0715,0.0713,0.0712,0.0711,0.071,-0.1005,-0.105,-0.1099,-0.1153,-0.1184,-0.1198,-0.1191,-0.1132,-0.1049,-0.0864,-0.0713,-0.0428,-0.0003,0.045,0.0608,0.0946,0.0895,0.1037,0.1074,0.1085,0.1145,0.0728,0.0908,0.0907,0.0907,0.0906,0.0906,0,-0.1043,-0.1095,-0.116,-0.1217,-0.1256,-0.1252,-0.1225,-0.1167,-0.1048,-0.0842,-0.0631,-0.0111,0.0312,0.0688,0.1149,0.1329,0.1357,0.1421,0.1466,0.15,0.1163,0.1153,0.1377,0.1377,0.1377,0.1377,0.1376,0.1376,-0.1064,-0.114,-0.118,-0.1258,-0.1292,-0.1296,-0.1271,-0.1146,-0.098,-0.0621,-0.0295,-0.0033,0.0496,0.1233,0.1661,0.1699,0.184,0.1836,0.1904,0.1676,0.1642,0.1611,0.1614,0.1931,0.1931,0.2236,0.2239,0.2241]}],[{"header":{"parameterUnit":"m.s-1","parameterCategory":2,"la1":30.2991,"la2":30.254,"lo1":-89.0895,"lo2":-89.0444,"dy":0.0017,"dx":0.0017,"nx":28,"ny":28,"refTime":"2025-04-01T21:00:00:Z","depth":"2","parameterNumber":2,"parameterNumberName":"U-component_of_CURRENTS"},"data":[0,0,0,0,0,0,0,0,0,0,0,0,0,0,0,0,0,0,0,0,0,0,0,0,0,0,0,0,0,0,0,0,0,0,0,0,0,0,0,0,0,0,0,0,0,0,0,0,0,0,0,0,0,0,0,0,0,0,-0.2409,-0.2409,0,-0.242,-0.242,-0.2419,-0.2395,-0.2395,-0.2394,-0.2394,-0.2364,-0.2364,-0.2364,0,0,0,0,0,0,0,0,0,0,0,0,0,-0.2366,-0.2366,-0.2409,-0.2409,-0.2409,-0.242,-0.242,-0.2419,-0.2396,-0.2395,-0.2394,-0.2394,-0.2365,-0.2364,-0.2364,0,0,0,0,0,0,0,0,0,0,0,0,0,-0.2379,-0.2367,-0.2409,-0.24,-0.24,-0.242,-0.242,-0.2419,-0.2396,-0.2395,-0.2394,-0.2393,-0.2365,-0.2364,-0.2364,-0.2378,0,0,-0.2363,-0.2363,0,0,0,0,0,0,0,0,-0.2378,-0.238,-0.2401,-0.2401,-0.2401,-0.2407,-0.2394,-0.2405,-0.2396,-0.2395,-0.2394,-0.2393,-0.2377,-0.2376,-0.2377,-0.2377,-0.2376,-0.2363,-0.2362,-0.2362,-0.2362,0,0,0,0,0,0,0,-0.2377,-0.238,-0.2411,-0.2402,-0.2401,-0.2396,-0.2397,-0.2396,-0.2388,-0.2395,-0.2394,-0.2399,-0.2376,-0.2377,-0.2376,-0.2375,-0.2363,-0.2362,-0.2362,-0.2362,-0.2398,-0.2399,0,0,0,0,0,0,-0.2382,-0.2379,-0.241,-0.2411,-0.239,-0.2397,-0.2398,-0.2404,-0.2389,-0.2387,-0.24,-0.2398,-0.2378,-0.2376,-0.2375,-0.2403,-0.2362,-0.2362,-0.2362,-0.2397,-0.2399,-0.24,0,0,0,0,0,0,-0.2381,-0.2385,-0.241,-0.2397,-0.24,-0.2399,-0.2406,-0.2405,-0.2408,-0.2393,-0.239,-0.2405,-0.2378,-0.2375,-0.238,-0.2401,-0.2362,-0.2361,-0.2396,-0.2398,-0.2399,-0.2452,0,0,0,0,0,0,-0.238,-0.2384,-0.2388,-0.2397,-0.2401,-0.2427,-0.2407,-0.2406,-0.2414,-0.2411,-0.2397,-0.2393,-0.2377,-0.238,-0.2379,-0.24,-0.2361,-0.2394,-0.2397,-0.2399,-0.2449,-0.2456,-0.2461,0,0,0,0,0,-0.2378,-0.2389,-0.2388,-0.2392,-0.2407,-0.2428,-0.2429,-0.2424,-0.2415,-0.2422,-0.2412,-0.2394,-0.2394,-0.2381,-0.2379,-0.2401,-0.2393,-0.2396,-0.2399,-0.2446,-0.2454,-0.2461,0,0,0,0,0,0,-0.2371,-0.2388,-0.2388,-0.2402,-0.2417,-0.2425,-0.243,-0.2431,-0.243,-0.2425,-0.2406,-0.2403,-0.2416,-0.2403,-0.239,-0.2419,-0.2392,-0.2394,-0.2429,-0.2436,-0.2442,-0.2433,-0.2361,0,0,0,0,0,-0.2374,-0.2382,-0.2401,-0.2411,-0.2421,-0.2428,-0.2434,-0.2436,-0.2439,-0.2437,-0.243,-0.2424,-0.2427,-0.2427,-0.2424,-0.244,-0.2407,-0.2454,-0.246,-0.2466,-0.2458,-0.2431,-0.2433,-0.2409,-0.2409,-0.2409,0,0,-0.2372,-0.2383,-0.2386,-0.241,-0.2417,-0.2441,-0.2429,-0.2445,-0.2462,-0.2435,-0.2449,-0.2444,-0.2436,-0.2453,-0.2458,-0.2444,-0.2457,-0.2469,-0.2474,-0.2462,-0.2434,-0.2436,-0.2438,-0.2411,-0.241,-0.241,0,0,-0.2377,-0.2386,-0.2397,-0.2417,-0.2439,-0.2449,-0.2458,-0.2475,-0.2479,-0.2499,-0.2484,-0.2488,-0.2496,-0.2491,-0.2491,-0.2531,-0.249,-0.254,-0.2562,-0.2537,-0.2538,-0.2539,-0.2502,-0.2499,-0.2543,-0.2543,-0.2543,0,-0.2375,-0.2393,-0.2404,-0.2428,-0.2443,-0.2457,-0.2479,-0.2495,-0.251,-0.2513,-0.2509,-0.2517,-0.2512,-0.2525,-0.2543,-0.2543,-0.2517,-0.2535,-0.2544,-0.2543,-0.2543,-0.2505,-0.25,-0.2546,-0.2546,-0.2546,-0.2545,0,-0.2392,-0.2411,-0.2422,-0.2454,-0.2476,-0.2496,-0.2525,-0.2543,-0.2551,-0.2559,-0.2573,-0.2568,-0.2566,-0.2579,-0.2575,-0.2582,-0.2561,-0.2553,-0.2521,-0.2548,-0.2507,-0.2501,-0.255,-0.2549,-0.2548,-0.2548,0,0,-0.2368,-0.2423,-0.2425,-0.2444,-0.249,-0.2507,-0.2545,-0.2573,-0.2587,-0.2603,-0.2613,-0.2629,-0.2618,-0.2617,-0.2613,-0.2601,-0.2585,-0.2583,-0.258,-0.2539,-0.252,-0.2436,-0.2422,-0.258,-0.2579,-0.2579,-0.2491,0,-0.2374,-0.2416,-0.2445,-0.2484,-0.2506,-0.2539,-0.2572,-0.26,-0.2618,-0.2634,-0.2632,-0.2642,-0.2637,-0.2638,-0.2627,-0.26,-0.2573,-0.2609,-0.2505,-0.2501,-0.2417,-0.2413,-0.2262,-0.2165,-0.2486,-0.2485,-0.2484,0,-0.2373,-0.2403,-0.2441,-0.2493,-0.2506,-0.2535,-0.2575,-0.2608,-0.2641,-0.2653,-0.266,-0.2659,-0.2656,-0.2644,-0.2591,-0.2615,-0.2567,-0.2539,-0.2534,-0.2429,-0.2407,-0.219,-0.2142,-0.2474,-0.2475,-0.2476,-0.2476,0,-0.2332,-0.2394,-0.2419,-0.2439,-0.2507,-0.2526,-0.2561,-0.2604,-0.2624,-0.2659,-0.2666,-0.2665,-0.265,-0.2612,-0.2557,-0.2576,-0.2479,-0.2493,-0.2365,-0.2358,-0.2192,-0.2172,-0.2431,-0.2432,-0.2432,-0.2432,-0.2432,0,-0.2315,-0.2333,-0.2402,-0.2416,-0.2442,-0.2504,-0.2531,-0.2567,-0.2613,-0.262,-0.2663,-0.2652,-0.2641,-0.259,-0.2549,-0.2427,-0.2462,-0.2353,-0.2325,-0.2208,-0.2191,-0.2432,-0.2433,-0.2429,-0.2429,-0.243,-0.2431,0,-0.2252,-0.2304,-0.233,-0.2401,-0.242,-0.2436,-0.2502,-0.2519,-0.2579,-0.2588,-0.2598,-0.2625,-0.256,-0.2522,-0.2444,-0.2389,-0.2305,-0.2246,-0.2104,-0.2061,-0.2206,-0.2212,-0.2105,-0.2102,-0.2098,-0.2096,-0.2093,0,-0.2219,-0.2228,-0.2293,-0.2302,-0.233,-0.237,-0.2391,-0.2478,-0.2497,-0.2553,-0.2541,-0.2513,-0.2444,-0.2311,-0.2219,-0.2101,-0.2181,-0.1901,-0.191,-0.2186,-0.2171,-0.2182,-0.2191,-0.1713,-0.1708,-0.1704,-0.17,0,-0.2139,-0.2164,-0.2183,-0.2207,-0.2231,-0.2257,-0.23,-0.2311,-0.2397,-0.2404,-0.2385,-0.2341,-0.2233,-0.2044,-0.1913,-0.1836,-0.1919,-0.181,-0.2111,-0.1828,-0.1811,-0.1799,-0.1822,-0.1663,-0.1666,-0.1669,-0.1671,-0.1673,-0.2058,-0.2048,-0.2074,-0.208,-0.2111,-0.2112,-0.2084,-0.2137,-0.2133,-0.2102,-0.2165,-0.2037,-0.1991,-0.1705,-0.1594,-0.1517,-0.165,-0.1584,-0.1599,-0.1618,-0.1597,-0.1577,-0.1379,-0.1381,-0.1383,-0.1384,-0.1386,0,-0.1939,-0.194,-0.1944,-0.1943,-0.1914,-0.198,-0.1988,-0.1922,-0.186,-0.1866,-0.1813,-0.1574,-0.1443,-0.1404,-0.1228,-0.1185,-0.1193,-0.1135,-0.1159,-0.1196,-0.123,-0.1192,-0.0864,-0.0863,-0.0861,-0.086,0,0,-0.1875,-0.1828,-0.1828,-0.1734,-0.1734,-0.1642,-0.1611,-0.1539,-0.1504,-0.1373,-0.1308,-0.1378,-0.1375,-0.113,-0.1063,-0.0941,-0.1062,-0.089,-0.1308,-0.1375,-0.1406,-0.1485,-0.1467,0,0,0,0,0]},{"header":{"parameterUnit":"m.s-1","parameterCategory":2,"la1":30.2991,"la2":30.254,"lo1":-89.0895,"lo2":-89.0444,"dy":0.0017,"dx":0.0017,"nx":28,"ny":28,"refTime":"2025-04-01T21:00:00:Z","depth":"2","parameterNumber":3,"parameterNumberName":"V-component_of_CURRENTS"},"data":[0,0,0,0,0,0,0,0,0,0,0,0,0,0,0,0,0,0,0,0,0,0,0,0,0,0,0,0,0,0,0,0,0,0,0,0,0,0,0,0,0,0,0,0,0,0,0,0,0,0,0,0,0,0,0,0,0,0,-0.0427,-0.0426,0,-0.0355,-0.0354,-0.0353,-0.0305,-0.0305,-0.0304,-0.0304,-0.0207,-0.0205,-0.0203,0,0,0,0,0,0,0,0,0,0,0,0,0,-0.0479,-0.0479,-0.0427,-0.0426,-0.0425,-0.0355,-0.0354,-0.0353,-0.0305,-0.0304,-0.0304,-0.0304,-0.0208,-0.0205,-0.0202,0,0,0,0,0,0,0,0,0,0,0,0,0,-0.0437,-0.0479,-0.0427,-0.0393,-0.0389,-0.0355,-0.0354,-0.0353,-0.0305,-0.0304,-0.0304,-0.0304,-0.0209,-0.0206,-0.0202,-0.019,0,0,-0.0192,-0.019,0,0,0,0,0,0,0,0,-0.0439,-0.0435,-0.0399,-0.0395,-0.0391,-0.0339,-0.0337,-0.0297,-0.0305,-0.0336,-0.0304,-0.0303,-0.025,-0.0243,-0.023,-0.0185,-0.0181,-0.0191,-0.0189,-0.0188,-0.0187,0,0,0,0,0,0,0,-0.0442,-0.0437,-0.0398,-0.0398,-0.0393,-0.0367,-0.0361,-0.0329,-0.0295,-0.0334,-0.033,-0.0323,-0.0247,-0.0233,-0.0227,-0.0179,-0.0191,-0.0188,-0.0186,-0.0185,-0.011,-0.011,0,0,0,0,0,0,-0.0455,-0.044,-0.04,-0.0396,-0.0415,-0.0366,-0.0359,-0.0356,-0.0296,-0.0287,-0.0324,-0.0321,-0.0239,-0.0231,-0.0224,-0.0198,-0.0188,-0.0184,-0.0182,-0.011,-0.011,-0.011,0,0,0,0,0,0,-0.0456,-0.0452,-0.0403,-0.0416,-0.0408,-0.0366,-0.0362,-0.0354,-0.034,-0.0289,-0.0279,-0.0318,-0.0239,-0.0228,-0.0195,-0.0194,-0.0183,-0.018,-0.0109,-0.011,-0.011,-0.0152,0,0,0,0,0,0,-0.0458,-0.0453,-0.0457,-0.0418,-0.0408,-0.0389,-0.0362,-0.0353,-0.0337,-0.0333,-0.0281,-0.0271,-0.0238,-0.02,-0.0191,-0.019,-0.0177,-0.0109,-0.0109,-0.011,-0.0151,-0.0154,-0.0156,0,0,0,0,0,-0.046,-0.0468,-0.0457,-0.0452,-0.0414,-0.0389,-0.0382,-0.035,-0.0337,-0.0335,-0.0296,-0.0273,-0.0195,-0.0197,-0.0187,-0.0184,-0.0109,-0.0109,-0.011,-0.0149,-0.0153,-0.0156,0,0,0,0,0,0,-0.0492,-0.0463,-0.045,-0.0449,-0.0424,-0.0381,-0.0377,-0.0355,-0.0323,-0.032,-0.0271,-0.0259,-0.0232,-0.0203,-0.0207,-0.0164,-0.0149,-0.0147,-0.0183,-0.0186,-0.0189,-0.0199,-0.0174,0,0,0,0,0,-0.0502,-0.0502,-0.0467,-0.0466,-0.0457,-0.0419,-0.0405,-0.0384,-0.035,-0.0336,-0.0298,-0.0259,-0.0224,-0.0202,-0.0171,-0.0145,-0.0105,-0.0137,-0.014,-0.0142,-0.0144,-0.0084,-0.0081,-0.011,-0.011,-0.011,0,0,-0.0514,-0.0499,-0.0498,-0.0473,-0.0452,-0.0444,-0.0409,-0.0395,-0.0385,-0.033,-0.0307,-0.027,-0.0221,-0.0193,-0.0178,-0.0167,-0.0113,-0.0143,-0.0145,-0.0145,-0.0084,-0.0081,-0.0078,-0.011,-0.011,-0.011,0,0,-0.0543,-0.0525,-0.0536,-0.0519,-0.0494,-0.0467,-0.0467,-0.0427,-0.0406,-0.0379,-0.0338,-0.0297,-0.025,-0.0207,-0.0182,-0.0181,-0.0135,-0.0177,-0.0192,-0.0134,-0.0131,-0.0127,-0.0073,-0.0064,-0.0173,-0.0173,-0.0173,0,-0.056,-0.0567,-0.0535,-0.054,-0.053,-0.0482,-0.0489,-0.0459,-0.0413,-0.0392,-0.038,-0.0293,-0.0254,-0.0204,-0.0205,-0.0186,-0.015,-0.0183,-0.0137,-0.0133,-0.0129,-0.0073,-0.0064,-0.0175,-0.0175,-0.0175,-0.0175,0,-0.0595,-0.0599,-0.0604,-0.0594,-0.0578,-0.0576,-0.0533,-0.0511,-0.0479,-0.0441,-0.039,-0.0329,-0.0275,-0.0257,-0.0231,-0.0184,-0.0166,-0.0152,-0.0129,-0.0129,-0.007,-0.0059,-0.0178,-0.0177,-0.0177,-0.0176,0,0,-0.0633,-0.0632,-0.0633,-0.064,-0.0607,-0.0599,-0.0578,-0.0539,-0.0518,-0.0465,-0.0429,-0.0362,-0.0321,-0.029,-0.0243,-0.019,-0.013,-0.0166,-0.0162,-0.0114,-0.0003,0.0029,0.0044,-0.0109,-0.0108,-0.0107,0.0027,0,-0.0671,-0.0705,-0.0682,-0.0699,-0.0711,-0.0659,-0.0643,-0.0599,-0.0547,-0.0499,-0.0418,-0.0371,-0.0335,-0.0308,-0.0249,-0.0158,-0.0104,-0.0168,-0.0009,-0.0004,0.0023,0.0057,0.0023,0.0141,0.0038,0.004,0.0041,0,-0.0711,-0.0729,-0.0764,-0.0757,-0.0755,-0.0752,-0.0708,-0.0685,-0.0599,-0.0557,-0.0484,-0.0418,-0.0327,-0.0305,-0.0142,-0.0186,-0.0105,-0.0034,-0.0027,0.0025,0.0048,0.0124,0.0165,0.006,0.0059,0.0057,0.0056,0,-0.0765,-0.078,-0.0813,-0.0813,-0.0797,-0.0795,-0.0776,-0.0707,-0.0679,-0.0589,-0.0552,-0.0435,-0.0368,-0.0253,-0.0104,-0.0123,0.0077,0.0074,0.0182,0.0185,0.0199,0.0201,0.0182,0.0182,0.0181,0.0181,0.0181,0,-0.0816,-0.0838,-0.0845,-0.0864,-0.089,-0.0852,-0.0849,-0.0807,-0.0736,-0.0695,-0.059,-0.052,-0.0353,-0.0217,-0.0101,0.0087,0.0087,0.0191,0.0227,0.0183,0.0182,0.0142,0.0135,0.0186,0.0185,0.0184,0.0183,0,-0.0871,-0.0876,-0.0915,-0.0919,-0.0921,-0.094,-0.0912,-0.0899,-0.0823,-0.0764,-0.0738,-0.0568,-0.0381,-0.0207,0.0006,0.0103,0.0267,0.0327,0.0264,0.0291,0.0332,0.0322,0.0462,0.0464,0.0466,0.0468,0.0469,0,-0.0903,-0.0933,-0.0968,-0.0995,-0.1002,-0.1017,-0.1022,-0.0958,-0.0928,-0.0785,-0.0753,-0.0561,-0.0405,-0.0073,0.0132,0.0359,0.0345,0.0446,0.0405,0.0343,0.0364,0.035,0.0338,0.041,0.0411,0.0411,0.0412,0,-0.096,-0.0973,-0.1007,-0.1072,-0.1098,-0.1114,-0.1106,-0.1094,-0.0998,-0.0911,-0.0752,-0.0615,-0.0293,-0.003,0.0256,0.0377,0.0406,0.0467,0.0444,0.0336,0.0303,0.032,0.0308,0.0418,0.0417,0.0417,0.0416,0.0416,-0.0992,-0.1037,-0.1085,-0.114,-0.1174,-0.1192,-0.119,-0.1139,-0.1067,-0.0904,-0.0769,-0.0522,-0.029,0.0139,0.0327,0.0501,0.0496,0.0525,0.0519,0.0513,0.0476,0.0447,0.0582,0.0582,0.0583,0.0583,0.0583,0,-0.1031,-0.1081,-0.1146,-0.1205,-0.1245,-0.1244,-0.1225,-0.1173,-0.1068,-0.0892,-0.0703,-0.0409,-0.0118,0.0126,0.0403,0.0561,0.0532,0.058,0.0502,0.0496,0.049,0.0448,0.0549,0.0549,0.0549,0.055,0,0,-0.1052,-0.1126,-0.1164,-0.1244,-0.1281,-0.1291,-0.1271,-0.1155,-0.1011,-0.0804,-0.061,-0.038,-0.0091,0.0092,0.0286,0.0428,0.0418,0.0439,0.045,0.0329,0.0321,0.0445,0.0372,0,0,0,0,0]}],[{"header":{"parameterUnit":"m.s-1","parameterCategory":2,"la1":30.2991,"la2":30.254,"lo1":-89.0895,"lo2":-89.0444,"dy":0.0017,"dx":0.0017,"nx":28,"ny":28,"refTime":"2025-04-01T21:00:00:Z","depth":"4","parameterNumber":2,"parameterNumberName":"U-component_of_CURRENTS"},"data":[0,0,0,0,0,0,0,0,0,0,0,0,0,0,0,0,0,0,0,0,0,0,0,0,0,0,0,0,0,0,0,0,0,0,0,0,0,0,0,0,0,0,0,0,0,0,0,0,0,0,0,0,0,0,0,0,0,0,-0.1611,-0.1612,0,-0.1658,-0.1658,-0.1659,-0.1691,-0.1691,-0.1692,-0.1692,-0.1729,-0.1729,-0.173,0,0,0,0,0,0,0,0,0,0,0,0,0,-0.1543,-0.1544,-0.1611,-0.1612,-0.1613,-0.1658,-0.1658,-0.1659,-0.1691,-0.1691,-0.1692,-0.1692,-0.1729,-0.1729,-0.173,0,0,0,0,0,0,0,0,0,0,0,0,0,-0.1577,-0.1544,-0.1611,-0.1635,-0.1638,-0.1658,-0.1658,-0.1659,-0.1691,-0.1691,-0.1692,-0.1693,-0.1728,-0.1729,-0.173,-0.1723,0,0,-0.1733,-0.1733,0,0,0,0,0,0,0,0,-0.1575,-0.158,-0.1631,-0.1634,-0.1637,-0.1671,-0.1648,-0.168,-0.1691,-0.1669,-0.1692,-0.1693,-0.1709,-0.1712,-0.1717,-0.1725,-0.1726,-0.1733,-0.1733,-0.1734,-0.1734,0,0,0,0,0,0,0,-0.1573,-0.1578,-0.1628,-0.1632,-0.1636,-0.1642,-0.1647,-0.1654,-0.1683,-0.1671,-0.1674,-0.1682,-0.1711,-0.1716,-0.1718,-0.1727,-0.1733,-0.1734,-0.1734,-0.1734,-0.18,-0.1801,0,0,0,0,0,0,-0.1571,-0.1576,-0.1626,-0.1629,-0.1609,-0.1643,-0.1649,-0.1658,-0.1683,-0.1689,-0.1681,-0.1683,-0.1714,-0.1717,-0.1719,-0.1782,-0.1734,-0.1735,-0.1735,-0.1799,-0.18,-0.1801,0,0,0,0,0,0,-0.1569,-0.1575,-0.1624,-0.1605,-0.1612,-0.1644,-0.1653,-0.1658,-0.1693,-0.1692,-0.1697,-0.1714,-0.1714,-0.1718,-0.1751,-0.1781,-0.1735,-0.1736,-0.1797,-0.1799,-0.1801,-0.1862,0,0,0,0,0,0,-0.1567,-0.1574,-0.1593,-0.1605,-0.1613,-0.1656,-0.1653,-0.1659,-0.1696,-0.17,-0.1721,-0.1724,-0.1715,-0.175,-0.1752,-0.1781,-0.1736,-0.1796,-0.1798,-0.18,-0.1859,-0.1866,-0.1872,0,0,0,0,0,-0.1564,-0.1584,-0.1593,-0.16,-0.1633,-0.1657,-0.1662,-0.1684,-0.1698,-0.1718,-0.1734,-0.1725,-0.1765,-0.1751,-0.1753,-0.1784,-0.1794,-0.1797,-0.18,-0.1856,-0.1864,-0.1872,0,0,0,0,0,0,-0.1566,-0.1589,-0.16,-0.1627,-0.165,-0.1664,-0.1688,-0.1703,-0.1731,-0.1743,-0.174,-0.1744,-0.1782,-0.1775,-0.176,-0.1809,-0.1778,-0.1782,-0.182,-0.1828,-0.1835,-0.1824,-0.1737,0,0,0,0,0,-0.1574,-0.1595,-0.1616,-0.1641,-0.1656,-0.1678,-0.1697,-0.1713,-0.1733,-0.1749,-0.1764,-0.1778,-0.1789,-0.1804,-0.1811,-0.184,-0.1811,-0.1861,-0.1868,-0.1873,-0.1866,-0.185,-0.1855,-0.181,-0.181,-0.181,0,0,-0.1582,-0.1598,-0.1612,-0.1643,-0.1664,-0.1691,-0.1692,-0.1729,-0.1756,-0.1746,-0.1797,-0.1804,-0.1802,-0.1834,-0.1851,-0.1836,-0.1872,-0.1877,-0.1882,-0.1871,-0.1854,-0.1858,-0.1861,-0.1812,-0.1812,-0.1811,0,0,-0.1598,-0.1624,-0.1646,-0.1669,-0.1707,-0.172,-0.1739,-0.1772,-0.1796,-0.1837,-0.1836,-0.1859,-0.1888,-0.1887,-0.1889,-0.1937,-0.1907,-0.1951,-0.198,-0.1966,-0.1969,-0.1971,-0.1943,-0.1942,-0.1956,-0.1957,-0.1957,0,-0.1609,-0.1635,-0.1657,-0.1684,-0.1708,-0.1738,-0.1767,-0.1794,-0.1836,-0.1853,-0.1864,-0.1901,-0.1907,-0.1927,-0.1949,-0.1951,-0.1934,-0.195,-0.1973,-0.1975,-0.1976,-0.1947,-0.1945,-0.196,-0.196,-0.1959,-0.1959,0,-0.1631,-0.1665,-0.1683,-0.1724,-0.1754,-0.1786,-0.1822,-0.186,-0.1894,-0.1912,-0.1954,-0.1961,-0.1978,-0.1992,-0.1989,-0.2008,-0.1991,-0.1981,-0.195,-0.1984,-0.1951,-0.1948,-0.1965,-0.1963,-0.1962,-0.1962,0,0,-0.1615,-0.1684,-0.1693,-0.172,-0.1779,-0.18,-0.1854,-0.1896,-0.1927,-0.197,-0.2,-0.203,-0.2037,-0.2038,-0.204,-0.2035,-0.2038,-0.2023,-0.202,-0.199,-0.2001,-0.187,-0.1853,-0.2039,-0.2039,-0.2039,-0.1975,0,-0.1626,-0.1677,-0.1713,-0.1768,-0.1795,-0.1843,-0.1886,-0.1931,-0.1969,-0.2007,-0.2022,-0.2052,-0.2054,-0.207,-0.2068,-0.2047,-0.2034,-0.2056,-0.1976,-0.1973,-0.1848,-0.1846,-0.2038,-0.1972,-0.1971,-0.1971,-0.1971,0,-0.1624,-0.1661,-0.1716,-0.1784,-0.1802,-0.1846,-0.191,-0.1953,-0.2008,-0.2037,-0.2068,-0.2081,-0.2095,-0.2088,-0.2059,-0.2077,-0.2044,-0.2019,-0.2016,-0.1865,-0.1835,-0.193,-0.1965,-0.1965,-0.1966,-0.1966,-0.1966,0,-0.1578,-0.1658,-0.1702,-0.1728,-0.1812,-0.1852,-0.19,-0.1964,-0.1994,-0.2057,-0.2075,-0.2099,-0.2102,-0.2081,-0.2042,-0.2058,-0.1987,-0.1997,-0.1839,-0.183,-0.1942,-0.194,-0.1957,-0.1957,-0.1957,-0.1957,-0.1958,0,-0.1551,-0.159,-0.1692,-0.1714,-0.1765,-0.1838,-0.1892,-0.1943,-0.2007,-0.2019,-0.2087,-0.2079,-0.2101,-0.2067,-0.2038,-0.1915,-0.1979,-0.1827,-0.1798,-0.197,-0.1973,-0.1939,-0.1938,-0.1955,-0.1955,-0.1956,-0.1956,0,-0.148,-0.1554,-0.1605,-0.1709,-0.1743,-0.178,-0.1877,-0.1901,-0.1983,-0.1998,-0.2018,-0.2059,-0.2011,-0.2,-0.1947,-0.1878,-0.1799,-0.1737,-0.1908,-0.1893,-0.1656,-0.166,-0.1557,-0.1552,-0.1547,-0.1544,-0.154,0,-0.1442,-0.1465,-0.158,-0.1608,-0.1659,-0.1731,-0.1765,-0.187,-0.1887,-0.1955,-0.1936,-0.1935,-0.1937,-0.1746,-0.177,-0.1682,-0.1661,-0.1613,-0.1646,-0.163,-0.1613,-0.1623,-0.1632,-0.1533,-0.1532,-0.1531,-0.153,0,-0.1357,-0.1415,-0.1454,-0.1514,-0.1566,-0.1608,-0.167,-0.1668,-0.176,-0.1855,-0.1789,-0.175,-0.1683,-0.1638,-0.157,-0.1519,-0.1648,-0.1566,-0.1576,-0.1606,-0.16,-0.159,-0.1604,-0.1514,-0.1516,-0.1518,-0.1519,0,-0.1287,-0.1293,-0.1354,-0.1387,-0.145,-0.1451,-0.1507,-0.1513,-0.1544,-0.1631,-0.16,-0.1604,-0.1652,-0.1549,-0.1495,-0.1425,-0.1409,-0.1367,-0.1387,-0.1404,-0.1384,-0.1355,-0.115,0,0,0,0,0,-0.1203,-0.1191,-0.1218,-0.1243,-0.1301,-0.1332,-0.1418,-0.1476,-0.157,-0.1473,-0.1533,-0.1466,-0.1384,-0.14,-0.1291,-0.1424,-0.1416,-0.1293,-0.138,-0.1428,-0.1446,-0.1436,0,0,0,0,0,0,-0.1145,-0.1163,-0.1167,-0.1112,-0.1102,-0.1142,-0.1189,-0.1258,-0.1221,-0.1323,-0.1283,-0.1365,-0.1307,-0.1402,-0.1252,-0.1254,-0.1276,-0.1315,-0.131,-0.1417,-0.1434,-0.1448,-0.1445,0,0,0,0,0]},{"header":{"parameterUnit":"m.s-1","parameterCategory":2,"la1":30.2991,"la2":30.254,"lo1":-89.0895,"lo2":-89.0444,"dy":0.0017,"dx":0.0017,"nx":28,"ny":28,"refTime":"2025-04-01T21:00:00:Z","depth":"4","parameterNumber":3,"parameterNumberName":"V-component_of_CURRENTS"},"data":[0,0,0,0,0,0,0,0,0,0,0,0,0,0,0,0,0,0,0,0,0,0,0,0,0,0,0,0,0,0,0,0,0,0,0,0,0,0,0,0,0,0,0,0,0,0,0,0,0,0,0,0,0,0,0,0,0,0,-0.0323,-0.0323,0,-0.028,-0.028,-0.0279,-0.0255,-0.0255,-0.0255,-0.0255,-0.0194,-0.0192,-0.0191,0,0,0,0,0,0,0,0,0,0,0,0,0,-0.0347,-0.0347,-0.0323,-0.0323,-0.0322,-0.028,-0.028,-0.0279,-0.0255,-0.0255,-0.0255,-0.0255,-0.0194,-0.0193,-0.0191,0,0,0,0,0,0,0,0,0,0,0,0,0,-0.0323,-0.0347,-0.0323,-0.0305,-0.0303,-0.028,-0.028,-0.0279,-0.0255,-0.0255,-0.0255,-0.0255,-0.0195,-0.0193,-0.019,-0.0177,0,0,-0.0183,-0.0182,0,0,0,0,0,0,0,0,-0.0325,-0.0322,-0.0308,-0.0307,-0.0304,-0.0273,-0.0266,-0.0244,-0.0255,-0.0273,-0.0255,-0.0255,-0.0219,-0.0215,-0.0206,-0.0174,-0.0172,-0.0183,-0.0182,-0.0181,-0.018,0,0,0,0,0,0,0,-0.0326,-0.0324,-0.0306,-0.0308,-0.0305,-0.0287,-0.0284,-0.0261,-0.0246,-0.0271,-0.0269,-0.0265,-0.0218,-0.0209,-0.0205,-0.0171,-0.0183,-0.0181,-0.018,-0.0179,-0.0127,-0.0127,0,0,0,0,0,0,-0.0335,-0.0326,-0.0307,-0.0304,-0.0315,-0.0287,-0.0283,-0.0283,-0.0247,-0.0241,-0.0265,-0.0264,-0.0213,-0.0208,-0.0203,-0.0187,-0.0181,-0.0178,-0.0177,-0.0127,-0.0127,-0.0127,0,0,0,0,0,0,-0.0335,-0.0334,-0.0309,-0.0314,-0.031,-0.0287,-0.0286,-0.0282,-0.0277,-0.0243,-0.0237,-0.0266,-0.0213,-0.0206,-0.0184,-0.0184,-0.0177,-0.0175,-0.0127,-0.0127,-0.0127,-0.0154,0,0,0,0,0,0,-0.0336,-0.0334,-0.0341,-0.0315,-0.031,-0.0301,-0.0286,-0.0281,-0.0275,-0.0273,-0.0241,-0.0235,-0.0212,-0.0188,-0.0182,-0.0181,-0.0173,-0.0127,-0.0127,-0.0127,-0.0153,-0.0155,-0.0157,0,0,0,0,0,-0.0337,-0.0345,-0.0342,-0.0339,-0.0319,-0.0301,-0.0297,-0.028,-0.0275,-0.0275,-0.0251,-0.0236,-0.0184,-0.0186,-0.0179,-0.0177,-0.0127,-0.0127,-0.0127,-0.0152,-0.0155,-0.0157,0,0,0,0,0,0,-0.0358,-0.0343,-0.0338,-0.0341,-0.0326,-0.0298,-0.0298,-0.0285,-0.0266,-0.0267,-0.0234,-0.0226,-0.0209,-0.019,-0.0193,-0.0163,-0.0154,-0.0153,-0.0176,-0.0178,-0.018,-0.019,-0.0171,0,0,0,0,0,-0.0367,-0.0371,-0.0349,-0.0353,-0.0348,-0.0325,-0.0318,-0.0306,-0.0284,-0.0277,-0.0253,-0.0227,-0.0203,-0.0189,-0.0168,-0.0149,-0.0122,-0.0144,-0.0146,-0.0148,-0.0152,-0.0106,-0.0104,-0.0127,-0.0127,-0.0127,0,0,-0.0377,-0.0369,-0.0371,-0.0358,-0.0346,-0.0343,-0.0321,-0.0314,-0.0309,-0.0273,-0.0261,-0.0235,-0.0201,-0.0181,-0.0171,-0.0164,-0.0127,-0.0148,-0.015,-0.0153,-0.0106,-0.0103,-0.0101,-0.0128,-0.0128,-0.0127,0,0,-0.0397,-0.0392,-0.0402,-0.0392,-0.0379,-0.0362,-0.0363,-0.0338,-0.0327,-0.031,-0.0283,-0.0253,-0.0223,-0.0191,-0.0172,-0.0171,-0.0141,-0.017,-0.0183,-0.0138,-0.0135,-0.0133,-0.0096,-0.009,-0.0167,-0.0167,-0.0167,0,-0.0411,-0.042,-0.0401,-0.0406,-0.0404,-0.0374,-0.0382,-0.0362,-0.0333,-0.0322,-0.0313,-0.0255,-0.0225,-0.0188,-0.0188,-0.0174,-0.015,-0.0177,-0.014,-0.0137,-0.0134,-0.0096,-0.0089,-0.0169,-0.0169,-0.0168,-0.0168,0,-0.0434,-0.0445,-0.0449,-0.0448,-0.0439,-0.0442,-0.0414,-0.0403,-0.0385,-0.0361,-0.0327,-0.0279,-0.0243,-0.0227,-0.0207,-0.0172,-0.0163,-0.015,-0.0135,-0.0133,-0.0093,-0.0086,-0.0171,-0.017,-0.017,-0.0169,0,0,-0.0458,-0.0467,-0.047,-0.0482,-0.0464,-0.0462,-0.0451,-0.043,-0.0423,-0.0383,-0.0364,-0.031,-0.0281,-0.0258,-0.022,-0.0179,-0.0133,-0.0162,-0.0159,-0.0126,-0.0041,-0.0047,-0.0039,-0.0115,-0.0114,-0.0113,-0.0022,0,-0.0485,-0.0516,-0.0505,-0.0528,-0.0541,-0.0512,-0.0506,-0.0481,-0.0449,-0.042,-0.0357,-0.0327,-0.0292,-0.0275,-0.0226,-0.0157,-0.0114,-0.0159,-0.0047,-0.0044,-0.005,-0.0031,-0.011,-0.0016,-0.0014,-0.0013,-0.0012,0,-0.0511,-0.0531,-0.0567,-0.0579,-0.0581,-0.0587,-0.0573,-0.0561,-0.0506,-0.0479,-0.0425,-0.0377,-0.0305,-0.0281,-0.0154,-0.0187,-0.0122,-0.0066,-0.0061,-0.0053,-0.0035,-0.0017,0.0003,0.0001,0.0,-0.0001,-0.0002,0,-0.0545,-0.0571,-0.0607,-0.0611,-0.0617,-0.0627,-0.0624,-0.0585,-0.0573,-0.0515,-0.0494,-0.0403,-0.0354,-0.0259,-0.014,-0.0149,-0.0002,0.0005,0.0064,0.0064,0.0054,0.0051,0.009,0.009,0.009,0.0089,0.0089,0,-0.0575,-0.0604,-0.0633,-0.0653,-0.0692,-0.0675,-0.0694,-0.0671,-0.0631,-0.0611,-0.053,-0.0484,-0.0348,-0.0246,-0.0145,-0.0013,0.0001,0.0065,0.009,0.004,0.0034,0.006,0.0055,0.0093,0.0092,0.0091,0.0091,0,-0.0604,-0.0623,-0.067,-0.07,-0.0714,-0.0742,-0.0751,-0.0753,-0.071,-0.0678,-0.0662,-0.0538,-0.0401,-0.0261,-0.0094,-0.0021,0.0104,0.0145,0.0081,0.0101,0.014,0.0133,0.0217,0.0218,0.0218,0.0218,0.0219,0,-0.0619,-0.065,-0.0714,-0.075,-0.077,-0.0807,-0.0827,-0.08,-0.0786,-0.0703,-0.068,-0.0551,-0.0457,-0.0209,-0.0076,0.0117,0.0139,0.0193,0.0165,0.0138,0.0155,0.0146,0.0139,0.022,0.022,0.022,0.022,0,-0.0646,-0.0677,-0.0717,-0.0797,-0.0841,-0.0877,-0.0894,-0.0888,-0.0837,-0.0805,-0.0673,-0.0541,-0.0383,-0.0199,-0.0051,0.0085,0.0151,0.0198,0.0198,0.0172,0.0143,0.0156,0.0148,0.0222,0.0222,0.0221,0.0221,0,-0.0664,-0.0704,-0.0765,-0.0828,-0.0891,-0.0919,-0.0928,-0.0888,-0.086,-0.0754,-0.0711,-0.0532,-0.0423,-0.0215,-0.0075,0.0054,0.0079,0.0105,0.0109,0.0109,0.0044,-0.0011,0.0047,0,0,0,0,0,-0.0672,-0.0719,-0.0787,-0.0853,-0.0915,-0.0941,-0.0954,-0.0944,-0.0897,-0.0806,-0.075,-0.0594,-0.0363,-0.0253,-0.0122,-0.0093,0.0076,0.006,0.0102,0.0232,0.023,0.0171,0,0,0,0,0,0,-0.0679,-0.0747,-0.0785,-0.0856,-0.09,-0.0951,-0.0959,-0.0931,-0.0859,-0.0794,-0.0658,-0.0579,-0.0346,-0.0432,-0.0121,-0.0083,-0.0044,0.0175,0.0177,0.0233,0.0231,0.0229,0.0168,0,0,0,0,0]}]]